Theta_e
355 353 352 352 352 353 352 352 352 351 351 348 344 337 332 330 327 325 325 326 325 325 325 326 326 326 325 326 326 327 328 329 330 330 333 335 333 333 337 340 342 343 342 342 343 344 345 346 345 344 347 348 346 349 351 348 346 346 346 345 344 344 345 344 343 344 344 342 342 342 342 343 343 344 348 348 348 348 348 347 346 345 344 343 343
354 354 353 353 353 353 352 352 352 351 350 347 343 337 335 334 331 328 325 325 325 325 325 325 325 326 326 325 327 332 330 328 331 331 332 333 329 330 335 337 342 344 342 342 342 343 342 343 343 341 343 344 343 345 346 345 346 346 347 350 349 347 346 344 343 343 343 342 342 342 342 342 344 345 347 346 346 346 346 346 345 344 345 343 343
355 354 354 353 353 353 353 353 352 352 350 346 342 338 337 338 336 334 330 327 325 325 325 325 326 325 326 325 326 337 337 330 332 333 333 333 329 328 334 337 341 344 344 343 342 342 342 342 343 341 340 341 342 343 343 344 346 346 349 353 352 350 347 344 343 343 342 342 341 342 342 341 343 345 345 345 344 344 344 344 344 344 344 341 341
356 355 354 354 353 353 353 353 352 352 351 347 343 340 340 339 339 339 336 332 328 326 325 325 326 325 325 325 324 335 341 333 330 332 332 334 331 328 330 336 340 342 345 345 344 343 342 343 343 341 341 341 342 343 342 344 347 350 351 350 351 353 349 345 344 342 341 343 343 342 340 341 343 342 343 344 343 343 344 343 343 344 343 338 339
356 356 356 355 354 354 354 353 353 352 352 348 343 340 339 339 339 340 338 336 331 327 325 324 325 325 324 325 323 329 336 331 328 331 332 334 334 331 329 333 340 342 344 346 345 343 343 343 342 341 342 343 342 342 343 345 348 353 352 348 350 352 350 347 344 343 342 341 343 343 341 341 341 340 341 343 343 342 343 343 343 344 343 340 341
357 356 356 356 355 355 355 354 353 352 351 348 344 340 338 338 338 338 337 336 333 328 326 326 325 326 325 326 326 326 329 329 329 331 335 336 337 338 333 330 337 341 343 345 345 344 343 343 343 342 342 343 342 341 342 343 345 350 351 350 350 349 348 348 346 344 342 339 340 342 340 341 341 342 343 344 343 342 341 342 342 342 343 342 342
357 356 356 356 356 356 356 355 354 353 352 348 345 343 340 338 337 337 337 336 335 333 331 331 330 330 330 328 326 326 327 330 330 331 336 339 338 340 337 331 334 339 342 344 344 344 344 344 343 342 342 341 341 340 341 345 349 350 349 349 349 347 347 349 347 346 344 341 342 342 341 341 341 341 343 344 344 343 342 341 341 342 342 343 343
358 357 357 356 357 357 356 355 354 353 353 351 348 345 342 341 339 339 338 338 338 337 337 337 337 339 339 331 327 328 328 330 332 331 335 337 336 338 338 334 332 336 340 341 343 345 344 344 343 343 342 340 340 338 339 345 349 349 347 348 348 347 347 349 347 346 346 345 344 343 343 343 341 341 343 343 344 344 343 341 341 342 340 341 342
358 358 358 357 357 357 356 356 354 353 354 353 350 346 344 343 341 341 340 340 340 340 341 340 342 346 344 336 331 329 329 331 332 333 333 335 336 336 336 335 333 335 339 339 341 344 344 343 344 344 342 340 340 339 338 341 343 345 348 348 348 348 349 348 346 345 346 346 346 345 345 345 344 344 344 343 344 344 343 342 342 341 341 341 341
358 358 358 357 356 357 356 357 356 355 355 355 353 350 347 344 343 344 342 343 342 342 344 344 346 349 347 343 338 332 331 331 332 334 335 335 336 336 335 334 334 335 338 339 340 342 343 342 344 346 343 341 339 339 338 338 339 342 346 347 349 349 349 349 347 344 343 344 346 344 344 346 345 345 345 344 345 345 344 343 342 342 343 343 342
357 358 358 357 357 357 357 357 356 356 356 356 356 354 349 345 344 345 344 345 344 345 346 346 349 350 349 347 343 334 333 332 332 334 334 335 336 336 336 335 336 336 339 341 340 341 343 343 344 346 345 342 339 339 339 338 341 341 342 345 348 349 350 350 348 345 342 339 342 343 342 346 346 344 345 344 344 345 345 344 343 343 342 342 343
357 358 358 358 358 358 358 357 358 357 357 357 357 356 352 345 344 346 346 346 346 347 348 348 351 352 351 350 344 337 336 334 333 334 334 335 336 336 336 335 336 338 339 342 342 341 342 341 343 345 345 343 342 341 340 340 343 344 341 343 346 347 348 349 349 347 344 341 344 346 345 345 345 343 342 342 344 344 344 344 344 343 343 342 344
357 358 358 358 359 359 358 358 359 358 358 357 357 357 355 348 343 345 346 346 347 348 348 350 352 352 351 349 345 340 337 334 334 335 335 336 337 336 336 335 336 338 339 341 342 343 342 341 342 343 343 343 343 343 341 341 343 343 340 340 344 345 346 348 349 349 347 344 346 348 348 346 345 344 343 342 343 343 343 344 344 344 344 343 343
356 358 357 358 359 359 358 359 359 359 357 357 357 357 356 351 344 343 345 346 347 348 349 351 351 351 350 349 345 342 339 337 336 336 337 337 337 337 336 334 335 337 339 339 341 342 342 341 343 343 343 344 344 344 344 343 344 343 343 341 341 342 344 346 348 349 348 346 344 346 347 347 346 345 346 344 343 343 343 344 344 344 344 343 345
355 357 356 358 358 359 359 358 359 359 357 357 357 356 356 352 346 343 344 345 346 347 349 350 350 350 351 350 348 345 341 340 339 338 338 338 337 337 335 335 335 336 338 339 339 340 339 342 344 343 344 345 345 345 345 344 344 345 345 344 341 341 342 344 346 348 349 347 345 343 345 348 349 348 347 347 346 345 344 343 343 344 345 344 345
355 356 356 357 358 357 358 358 359 359 357 358 357 356 355 352 348 344 343 344 345 346 348 350 351 352 351 351 350 347 345 344 341 338 338 338 337 336 335 335 335 336 338 339 339 339 339 342 343 342 343 344 345 346 347 344 342 344 346 344 341 340 342 343 343 346 347 347 346 344 342 345 349 349 348 348 347 343 339 336 337 341 344 346 345
353 356 355 356 357 358 358 358 358 358 357 356 356 354 351 349 347 344 344 344 344 346 346 348 351 351 351 351 351 350 349 347 343 338 338 337 337 336 336 335 334 336 337 338 339 339 339 340 341 341 342 343 344 345 346 344 342 344 345 344 340 338 340 340 341 343 344 344 345 345 342 342 345 345 344 345 342 333 330 328 329 334 336 340 344
352 355 356 356 356 358 358 357 357 357 356 356 354 351 348 346 344 343 344 344 344 345 346 348 349 349 349 351 351 350 350 349 345 341 340 338 339 337 337 336 336 336 338 338 338 338 339 338 339 340 341 341 342 342 343 343 342 344 345 343 341 338 338 339 339 340 340 341 344 344 343 342 343 342 345 348 343 332 331 330 328 327 327 329 335
351 354 355 356 356 357 357 357 357 357 357 356 354 351 348 345 343 342 343 343 343 344 345 346 347 348 349 349 349 349 349 349 348 347 344 341 340 339 339 339 338 337 338 338 338 338 338 337 337 338 339 340 341 341 342 342 342 344 342 342 342 339 340 341 338 337 338 338 340 341 342 344 344 344 346 350 347 338 338 338 335 331 329 328 328
348 353 355 356 355 356 356 356 357 357 358 357 356 353 351 348 344 342 343 343 343 344 345 346 346 348 348 348 349 348 349 349 349 350 347 343 341 341 340 340 339 339 337 337 337 337 337 337 337 338 338 339 340 341 341 339 340 342 339 340 342 341 342 343 338 336 337 337 337 337 339 343 345 342 342 345 345 342 340 342 341 339 337 337 335
347 351 354 355 355 355 356 355 356 357 358 358 358 356 354 353 349 344 344 344 343 343 344 345 346 347 348 348 348 348 349 350 349 347 345 343 342 341 341 341 341 340 339 338 337 336 337 337 337 337 338 339 339 339 340 338 337 339 337 337 340 339 342 345 342 338 336 336 336 336 336 340 342 341 339 341 344 343 341 341 340 339 340 341 340
348 350 351 353 354 355 355 356 356 356 358 358 358 357 357 355 353 348 345 345 345 344 342 343 345 345 347 347 348 349 348 349 347 345 344 343 342 341 342 342 341 340 339 338 337 336 336 336 337 337 337 338 338 338 340 338 335 335 335 335 337 337 340 344 344 339 336 335 337 336 335 337 339 338 337 337 341 344 347 347 344 340 339 340 339
347 348 349 352 355 355 355 356 356 355 357 357 358 358 358 357 355 353 348 345 347 347 345 342 343 344 345 346 348 348 349 348 346 346 344 343 341 340 340 340 340 340 339 337 337 336 336 336 336 336 336 337 338 338 340 339 335 333 333 333 336 337 337 339 340 338 336 336 336 336 335 336 337 337 336 336 337 339 342 344 343 340 339 339 338
346 345 348 350 353 356 355 355 356 355 357 357 357 358 358 358 357 355 353 349 350 352 349 344 343 344 345 346 347 348 348 348 347 347 345 344 344 343 340 339 339 338 338 337 336 336 336 335 335 335 335 336 336 337 338 338 334 331 331 332 333 335 336 336 336 336 337 337 336 337 337 336 336 336 335 335 335 336 335 336 337 336 336 337 337
348 347 349 350 353 355 355 356 356 355 356 357 357 358 358 358 357 357 356 355 354 354 352 346 343 344 345 345 346 347 348 348 347 346 344 344 347 348 343 338 338 338 338 337 335 335 336 335 335 334 335 335 335 336 336 335 334 332 331 331 331 332 334 334 335 336 337 337 337 338 338 337 337 336 335 334 334 333 334 333 334 334 334 337 341
352 350 351 351 353 356 355 355 356 355 356 357 357 358 357 357 357 357 358 358 356 356 355 350 344 344 345 345 346 346 347 347 346 346 346 346 349 351 347 340 336 337 338 337 336 336 336 335 334 334 334 334 334 334 334 333 333 332 331 330 331 331 332 333 334 335 337 337 337 337 337 336 335 335 334 334 333 333 333 333 333 333 333 337 341
347 349 350 351 353 356 357 355 355 355 356 356 357 357 357 357 357 357 358 358 357 357 356 352 346 345 346 345 345 346 346 346 346 346 348 349 350 352 350 344 338 337 338 337 336 335 335 335 335 334 334 334 334 334 333 331 331 331 332 331 331 331 332 332 332 333 334 335 335 334 335 334 334 333 333 333 332 332 332 332 332 333 333 335 338
345 348 350 352 354 356 356 355 355 355 355 356 357 356 357 357 357 357 358 358 358 357 355 352 349 347 346 345 344 345 346 347 347 346 348 349 350 351 349 345 341 338 338 336 336 335 335 334 334 334 334 334 334 333 332 331 330 330 331 332 332 332 332 332 331 331 331 333 334 335 334 333 332 331 331 331 331 331 331 331 331 332 334 337 342
344 348 350 351 353 355 354 353 354 354 354 355 356 356 357 357 357 357 358 358 358 356 355 352 350 347 346 345 344 345 346 347 347 347 348 348 349 348 347 345 343 341 340 338 338 339 336 333 332 333 333 333 333 332 331 329 328 328 329 330 332 332 332 332 331 330 331 331 332 334 335 334 331 330 330 330 330 329 330 330 331 331 334 342 349
340 346 349 349 350 351 350 350 352 354 354 355 356 356 357 356 357 357 357 357 357 356 354 352 350 347 347 346 345 345 345 346 347 348 347 348 348 347 346 346 344 343 343 342 341 342 341 338 333 332 333 333 331 331 330 328 327 327 328 328 330 331 331 331 331 331 330 330 329 331 333 332 329 330 329 329 329 329 329 329 331 332 334 343 352
345 344 347 348 350 352 351 350 349 350 352 355 355 355 356 356 357 358 357 357 357 353 352 350 348 348 347 347 345 345 345 345 346 346 347 347 348 348 347 347 346 345 345 345 344 344 345 345 341 335 332 331 331 331 330 328 327 327 327 328 329 329 330 330 330 330 329 329 328 328 329 328 328 329 329 329 329 329 329 329 330 333 334 340 348
356 354 351 347 349 354 353 348 345 348 351 353 354 356 356 355 356 357 357 357 357 354 351 349 349 348 347 347 347 346 345 345 345 346 347 347 347 347 347 347 346 346 346 346 347 346 346 348 349 345 339 333 331 331 330 329 328 327 327 327 328 328 329 328 329 328 328 328 328 328 328 328 328 329 328 329 329 328 329 330 331 333 336 339 343
360 361 359 353 347 350 352 347 343 347 350 350 352 354 353 353 354 356 357 357 358 356 353 350 349 348 347 347 347 347 346 345 346 346 346 347 347 347 348 347 347 347 347 347 347 348 347 348 349 349 345 339 335 332 331 330 329 329 328 328 329 328 328 328 327 327 327 328 327 328 328 328 328 329 328 327 329 329 330 331 332 334 336 340 344
360 361 363 358 348 346 350 350 345 344 346 349 352 352 353 354 354 356 356 357 357 356 354 350 349 348 347 347 347 347 347 346 346 346 346 346 347 347 347 347 347 347 348 347 347 348 348 347 348 348 347 344 340 336 332 330 331 330 329 329 330 330 330 329 329 328 328 328 328 328 328 328 328 328 328 328 329 330 331 333 336 338 338 340 344
360 361 362 360 351 343 345 353 352 347 348 354 355 354 355 355 354 354 355 355 355 354 352 351 348 347 347 347 347 348 347 347 347 346 346 346 347 348 348 348 348 348 348 347 347 348 348 348 348 348 347 346 344 339 333 329 330 330 330 331 331 331 331 330 329 329 329 328 328 328 328 328 329 328 329 330 330 330 332 335 341 346 348 347 350
359 360 362 361 355 345 342 350 354 352 352 354 355 355 355 356 354 352 353 353 352 352 351 349 347 347 347 347 348 348 348 348 347 347 347 347 347 348 348 348 348 348 348 347 347 348 348 348 349 349 349 348 345 340 336 332 330 330 332 333 333 333 333 331 330 329 329 328 328 328 329 329 330 330 331 330 331 333 334 336 340 347 351 354 356
358 360 361 359 354 347 344 349 354 354 352 354 356 355 355 356 355 353 352 352 351 351 349 347 347 347 347 346 348 348 347 348 348 348 347 347 347 348 347 348 348 348 348 348 347 348 348 348 348 349 349 348 347 343 339 336 333 333 334 334 335 335 334 333 331 330 330 330 329 329 331 332 332 332 332 331 333 335 337 337 339 342 349 355 357
357 360 360 354 350 349 348 351 355 354 352 355 356 356 356 355 354 352 351 350 349 349 347 347 347 347 347 347 347 348 348 348 348 348 347 347 348 348 347 348 348 348 348 348 348 348 348 347 348 349 349 349 348 346 343 340 338 338 337 337 337 337 336 335 333 332 332 331 331 330 332 333 334 334 334 333 335 338 339 340 340 342 347 353 356
357 359 358 352 350 351 350 353 356 353 353 356 356 355 356 354 352 351 351 349 349 347 346 347 347 347 347 348 347 348 348 347 347 347 347 348 347 348 347 347 347 347 348 348 348 348 348 348 349 349 350 350 350 349 348 345 342 341 341 342 341 341 340 338 335 334 334 333 333 333 333 333 335 336 336 336 338 340 341 342 342 344 348 352 356
356 358 357 353 353 353 353 354 354 353 356 357 356 355 355 352 350 351 350 348 347 346 347 347 347 347 348 348 348 347 347 347 347 347 347 348 348 348 348 348 347 348 348 349 350 350 349 349 350 350 351 351 351 352 351 349 347 345 345 346 345 345 344 341 338 339 339 337 337 337 337 335 335 338 340 339 341 343 344 345 345 346 351 355 357
355 356 356 355 355 355 354 353 354 355 357 356 356 355 354 351 349 349 348 347 347 347 347 348 347 348 348 348 348 347 347 347 348 347 348 348 348 348 349 348 349 350 350 350 351 353 354 354 353 354 354 354 354 354 354 354 352 350 349 350 351 351 348 346 345 345 346 346 346 347 347 346 341 341 343 343 343 346 347 348 347 347 351 354 355
354 356 356 357 356 355 354 355 356 356 356 355 354 353 350 349 348 347 346 347 348 347 348 348 348 348 348 348 348 348 347 348 347 348 348 348 348 349 350 351 351 352 352 352 352 353 355 357 357 357 357 358 358 357 356 356 356 355 354 354 354 354 353 351 352 353 354 354 355 355 356 354 348 346 347 348 348 349 350 350 350 349 350 352 354
354 354 355 357 359 357 355 356 358 357 356 356 353 350 348 347 345 346 347 349 348 347 347 348 348 349 348 348 348 348 348 348 348 348 348 348 349 350 351 352 353 353 355 356 356 356 357 358 360 360 360 361 361 360 359 358 358 358 357 357 357 357 357 355 356 357 358 358 357 358 358 356 352 349 351 351 351 352 353 353 353 352 352 352 355
353 354 355 357 359 359 357 356 357 357 356 357 355 351 347 347 346 346 348 349 348 348 349 348 349 348 349 349 348 348 348 348 348 349 349 349 350 350 351 352 353 355 358 360 360 361 361 361 361 362 362 362 362 362 362 360 360 359 360 360 360 360 359 358 358 358 358 358 358 358 359 358 356 353 353 354 354 354 355 355 356 356 356 355 355
352 354 356 357 357 359 360 358 357 357 357 357 356 352 347 348 349 349 348 350 350 349 349 349 349 349 349 349 349 348 349 349 350 350 350 351 352 351 352 353 353 357 361 362 362 362 363 362 362 363 363 363 363 364 363 363 362 361 361 362 361 361 361 360 359 358 357 357 357 358 358 359 357 354 355 354 355 356 357 357 358 359 358 357 358
352 353 355 357 357 358 360 360 359 359 359 359 358 356 351 350 351 350 348 350 351 350 350 349 349 349 349 349 349 350 349 349 350 350 351 351 352 353 353 353 355 360 362 363 363 363 364 364 364 364 364 364 364 364 365 365 364 363 362 363 362 362 362 361 360 359 358 357 357 357 358 358 356 355 355 356 356 356 357 358 359 360 360 360 359
350 351 353 356 357 358 358 359 360 361 361 361 361 360 357 353 351 352 351 350 350 350 349 349 349 349 349 349 350 351 352 352 351 351 353 353 352 355 356 354 355 360 364 364 364 364 364 364 365 365 365 365 365 365 365 365 365 364 364 363 363 362 362 361 360 359 358 357 357 356 356 356 355 356 355 356 356 357 358 359 359 359 360 358 355
348 349 351 352 354 357 357 357 359 360 361 362 362 362 362 358 353 352 353 351 349 349 349 350 350 350 350 350 350 351 355 357 355 354 358 360 358 358 360 359 357 360 363 365 365 365 365 365 365 366 365 365 365 366 366 366 365 365 364 364 364 363 363 362 361 360 359 358 358 357 356 356 355 356 356 356 357 358 358 358 357 357 357 353 347
347 347 347 348 350 354 355 357 358 358 359 361 361 361 361 359 353 352 353 351 349 349 350 349 350 350 349 351 351 351 355 360 362 361 362 364 364 363 364 364 363 362 363 365 365 365 365 365 365 365 365 366 366 366 365 366 366 365 365 365 364 363 363 362 362 360 359 357 357 357 356 355 355 356 356 356 357 357 357 356 355 354 349 342 336
347 345 345 346 347 349 351 354 356 358 358 359 359 359 359 358 355 355 356 353 350 350 350 351 351 352 353 354 354 354 357 361 365 367 365 362 363 363 364 364 365 365 365 364 365 365 365 365 365 365 365 366 366 365 366 365 366 365 364 363 363 363 363 363 362 361 359 357 357 358 356 356 357 357 357 357 357 356 355 354 350 344 337 331 328
344 345 345 345 345 345 348 350 352 355 357 358 359 359 359 360 360 360 359 355 351 349 352 355 355 355 355 356 355 357 360 362 364 368 368 365 362 363 363 363 365 366 366 364 363 364 364 365 365 365 365 365 365 365 365 365 365 364 364 363 362 362 362 363 362 361 359 357 356 358 358 358 358 358 358 358 356 355 354 350 343 334 328 326 326
Wind_Speed
25 27 30 30 29 29 29 29 29 30 30 32 36 39 39 39 38 37 37 36 35 34 33 31 30 28 26 24 22 19 18 18 17 16 14 13 14 13 11 11 10 9 9 8 7 7 5 4 4 2 1 1 1 2 2 3 5 5 5 5 4 2 3 3 2 3 2 2 3 2 3 3 2 2 1 0 1 0 0 1 2 2 2 3 2
24 26 30 30 30 30 30 29 30 32 33 35 38 40 40 39 39 38 38 37 36 35 34 33 31 29 27 25 22 19 19 19 17 16 15 15 15 13 12 12 10 9 9 9 8 8 6 5 4 3 2 1 0 1 2 4 5 5 5 5 4 3 3 3 2 3 3 2 2 2 2 2 2 2 1 1 1 1 1 2 2 2 2 3 3
26 28 30 32 31 31 30 30 32 33 35 38 40 41 41 40 39 39 38 38 37 36 35 34 32 30 27 25 23 18 17 19 17 17 16 16 16 14 13 13 11 10 9 9 9 8 7 6 5 5 4 3 1 1 2 3 4 5 4 3 3 3 3 3 2 3 3 2 2 2 2 1 2 3 1 1 2 1 1 1 1 2 1 1 2
28 29 31 32 32 33 32 32 32 32 34 38 41 42 42 42 41 40 39 38 38 37 37 34 32 31 28 27 25 19 17 20 19 18 17 16 17 17 15 14 12 11 10 9 9 9 8 7 7 6 5 4 3 2 2 2 3 4 3 2 2 3 3 3 2 3 3 3 2 2 2 2 3 3 2 2 1 1 1 1 1 1 2 2 2
29 30 31 32 33 34 34 33 33 34 35 38 41 42 43 43 42 41 40 39 38 38 37 35 33 32 30 29 28 24 23 23 21 19 18 18 18 18 17 16 13 13 12 10 10 9 9 8 8 7 6 5 5 4 3 3 2 2 3 3 3 2 2 2 2 2 2 2 2 1 1 2 4 4 3 3 2 2 1 1 2 2 3 3 2
29 31 32 33 33 33 33 33 34 35 37 39 40 41 42 42 42 41 40 39 39 38 37 36 35 34 32 32 31 29 27 25 23 21 19 19 18 17 17 17 15 14 13 12 11 10 10 9 9 8 8 7 6 6 5 3 2 2 2 2 2 2 2 2 2 2 1 2 2 1 1 2 4 4 4 4 4 2 1 2 2 2 3 4 3
28 30 31 32 33 33 34 35 35 35 36 38 39 40 41 41 42 41 41 40 39 38 38 36 35 34 33 33 33 31 29 26 25 22 20 19 18 17 17 18 17 15 14 13 12 11 10 9 9 9 8 8 7 6 5 4 3 3 2 2 2 2 3 2 2 2 1 1 1 1 1 1 2 2 3 4 4 4 3 1 1 2 3 3 4
29 30 31 33 34 36 36 37 37 35 34 36 38 39 40 41 41 41 40 40 39 39 38 36 36 32 30 33 34 32 30 27 25 23 21 20 20 19 19 19 18 17 16 15 13 12 11 10 10 10 9 9 8 7 6 5 5 5 2 2 2 2 2 2 1 1 1 1 1 1 0 1 2 2 2 3 3 4 3 2 2 2 2 2 3
29 30 32 34 35 36 37 37 37 34 33 35 38 40 40 40 40 39 40 39 39 39 37 37 35 28 27 32 34 33 31 28 26 24 23 21 21 21 21 21 20 19 18 16 15 13 13 11 10 10 10 9 8 8 8 7 7 5 3 2 2 1 1 2 1 0 1 1 1 1 1 1 1 1 2 2 2 3 2 3 2 2 2 2 2
28 29 32 34 35 36 35 34 34 33 33 33 35 38 40 41 40 39 40 39 39 38 36 37 33 26 28 31 31 33 32 30 28 26 25 23 22 22 22 22 22 20 19 18 17 15 14 13 11 11 10 9 9 8 8 8 7 6 4 3 2 1 1 1 1 1 1 1 2 2 1 1 2 2 2 2 1 2 3 3 3 3 3 3 3
28 29 30 32 33 33 33 33 33 34 32 32 33 35 40 42 41 40 39 38 38 37 36 36 31 27 29 27 29 34 33 31 31 29 27 25 23 23 23 23 23 21 20 19 18 17 16 14 12 11 11 10 10 9 9 8 7 7 6 4 3 2 1 1 0 0 1 1 2 2 2 1 2 2 2 2 2 2 3 4 4 4 4 4 4
27 28 28 30 31 32 33 33 34 34 33 33 34 35 39 43 41 40 39 38 38 36 36 35 29 27 27 25 29 33 31 32 32 30 29 26 25 25 24 25 24 22 21 20 19 18 18 16 14 13 12 11 10 9 9 8 7 8 7 5 3 3 2 2 1 1 1 2 2 3 3 2 3 3 3 3 3 4 4 5 5 5 5 4 5
26 27 28 30 32 33 34 35 35 36 36 36 35 34 38 42 42 41 40 39 38 36 36 33 28 27 26 25 28 30 30 32 31 30 30 28 26 26 26 26 25 23 23 22 20 18 18 17 15 14 13 12 11 10 9 8 8 8 8 6 5 4 3 3 2 2 2 2 2 3 4 3 4 4 4 4 4 4 5 5 6 5 5 6 6
25 27 29 31 33 34 35 36 37 38 38 38 38 37 37 41 43 42 40 40 38 37 36 32 29 28 25 24 26 28 30 32 31 31 30 29 28 27 26 27 25 24 23 22 21 19 18 16 15 15 14 12 12 11 10 9 9 9 8 8 7 6 5 4 3 3 3 3 3 4 4 4 5 4 4 4 4 4 5 5 6 7 7 7 7
26 28 30 31 34 35 36 37 37 38 39 39 39 39 39 42 44 43 41 41 40 39 37 34 31 28 25 24 25 27 29 30 30 31 30 29 29 27 27 27 26 25 23 23 22 20 18 16 15 15 14 14 13 12 12 11 10 9 9 9 9 8 6 5 4 4 4 4 4 5 4 4 5 5 4 5 4 5 5 6 6 7 8 7 7
26 27 29 31 33 34 36 37 38 39 40 40 40 41 42 43 45 44 42 42 41 40 39 36 30 27 26 25 25 26 27 26 28 31 30 29 28 27 26 26 26 25 24 22 22 21 19 17 16 16 15 15 14 13 13 12 11 10 9 10 10 9 8 7 6 6 6 5 5 6 5 5 6 6 5 5 6 6 7 7 7 7 8 8 8
26 28 30 31 32 34 36 38 38 40 41 42 42 43 44 45 45 44 42 42 42 41 40 37 31 28 28 26 26 26 25 25 28 30 29 29 29 27 26 26 26 25 24 22 21 21 20 18 18 17 16 16 15 14 14 13 12 11 10 11 11 10 9 9 8 7 7 7 7 7 7 6 6 6 6 6 7 8 8 8 7 7 8 9 9
26 29 29 30 32 35 36 36 38 41 42 43 44 44 44 45 45 44 43 43 43 42 41 39 35 34 33 30 29 28 27 27 28 29 30 30 29 28 27 26 26 25 24 23 22 21 20 19 19 18 18 17 16 15 15 14 13 13 12 12 12 12 11 10 9 8 8 8 8 8 8 7 7 7 6 7 8 8 8 8 8 8 9 9 9
25 27 28 30 33 35 36 37 37 39 40 41 43 44 44 44 43 43 43 43 42 42 41 40 39 37 36 33 31 30 29 28 27 27 29 30 30 29 28 26 26 25 25 24 23 22 21 20 19 19 19 18 17 16 16 15 15 14 14 13 13 14 12 10 10 9 9 9 9 9 9 8 8 8 7 8 9 9 8 9 10 10 10 10 10
26 27 28 31 33 35 37 38 38 38 39 40 41 43 43 43 43 43 42 42 42 42 42 41 40 38 37 35 33 32 30 29 27 26 28 31 30 29 28 27 26 26 25 25 24 23 22 21 20 20 19 19 19 18 17 17 17 16 16 15 14 14 12 10 10 10 10 11 10 9 9 8 9 9 9 9 10 10 10 10 11 12 12 12 12
26 27 29 31 33 35 36 36 36 35 36 36 38 40 41 41 42 42 42 42 42 43 42 42 41 40 39 38 36 35 32 29 29 29 30 31 30 29 29 28 27 27 26 26 25 25 24 23 22 21 20 20 20 19 19 19 19 18 18 17 16 16 14 11 10 11 12 12 11 11 10 10 10 10 11 11 11 12 12 12 12 13 13 14 14
26 28 29 30 32 34 34 33 33 33 35 36 37 38 39 41 42 42 42 43 43 43 43 42 41 41 40 39 37 36 34 31 30 30 31 31 30 29 29 28 28 28 27 26 26 26 25 25 24 23 22 21 21 20 19 20 20 20 20 19 19 18 17 14 12 12 13 12 12 12 11 11 11 12 12 11 12 12 12 12 13 14 15 15 16
26 27 28 29 30 31 31 32 34 35 36 37 37 38 40 41 40 41 42 43 43 42 43 42 41 41 40 39 38 37 35 33 31 31 31 30 30 29 28 28 28 28 28 27 27 27 27 27 26 25 24 23 22 21 20 20 21 22 22 21 20 20 19 18 16 15 14 13 14 13 12 12 12 12 12 12 13 14 13 14 14 15 16 16 17
25 26 26 25 25 27 30 33 35 36 36 36 37 37 38 38 38 40 42 43 42 41 42 43 42 41 40 38 38 37 36 34 33 32 32 30 29 28 28 28 28 28 28 28 27 27 28 28 27 27 26 24 23 22 21 21 22 23 23 22 22 22 21 20 19 17 15 15 15 14 14 14 13 13 14 13 14 15 15 15 15 16 16 16 17
20 21 21 22 24 27 32 35 37 38 37 37 38 38 37 38 39 39 39 40 40 40 41 43 42 41 40 39 38 37 36 36 34 33 33 31 29 29 29 29 28 28 28 28 28 28 28 29 29 28 27 26 25 24 23 22 22 23 23 23 23 23 22 21 20 19 17 16 16 16 15 15 15 15 15 15 15 16 16 16 17 17 18 17 15
14 16 18 21 24 27 31 34 37 38 36 37 38 38 37 38 39 38 37 38 40 39 40 42 42 41 41 40 39 38 38 37 36 34 33 32 30 29 29 30 29 29 29 29 29 29 29 30 29 28 28 27 26 25 25 24 24 23 24 24 23 23 22 21 20 19 19 18 18 17 17 17 16 16 16 17 17 17 18 19 19 20 20 18 17
13 16 18 21 23 26 30 34 36 36 35 36 37 37 37 37 38 37 36 37 39 39 40 42 42 41 41 41 40 40 39 37 37 35 34 32 31 30 30 30 30 29 29 30 30 30 30 30 29 29 28 28 27 27 26 26 26 25 25 24 24 23 22 21 20 20 20 19 19 18 18 18 17 17 18 18 19 20 20 21 21 21 20 20 19
13 17 20 23 25 27 31 34 35 34 34 35 35 36 36 36 37 36 36 37 39 40 42 43 43 42 42 43 42 41 40 38 37 36 35 33 32 32 31 31 30 30 30 31 31 30 30 30 30 29 29 28 28 28 27 28 27 27 26 26 25 24 24 23 22 22 21 20 20 20 19 19 18 18 19 19 20 21 22 22 22 21 21 19 17
13 18 22 24 27 29 32 35 35 34 35 34 34 35 35 36 37 37 36 37 39 41 42 43 44 44 43 43 43 42 40 39 38 37 36 36 35 34 33 32 31 30 30 30 30 30 30 31 31 30 30 30 29 29 29 29 29 28 28 27 27 26 26 25 24 23 22 21 21 21 21 21 21 20 19 20 21 22 23 23 22 22 20 17 13
8 14 20 23 26 29 33 35 36 35 36 35 34 36 37 37 37 38 38 38 39 41 43 44 45 45 44 43 43 42 41 40 40 38 37 37 36 35 34 33 31 30 30 30 30 29 30 30 31 31 30 30 30 30 29 29 29 29 29 28 29 28 27 27 26 25 24 23 23 22 22 23 24 23 21 21 23 23 24 24 23 22 21 17 12
7 8 14 19 23 27 31 34 37 38 38 37 37 38 39 37 37 39 39 39 41 43 45 45 45 45 45 44 43 42 42 41 41 40 38 37 37 36 35 33 32 31 31 31 30 31 30 29 30 30 30 30 30 30 30 29 28 29 29 29 29 29 29 28 27 27 26 25 25 24 24 25 25 24 23 23 24 25 25 25 23 22 21 19 16
13 10 10 14 19 24 28 32 36 38 39 40 39 38 39 39 40 41 40 39 40 43 46 45 45 45 44 43 42 42 42 42 42 41 39 38 37 36 36 35 34 33 33 32 32 32 32 30 30 30 31 31 31 31 31 30 29 29 29 29 29 29 30 30 29 28 27 26 26 26 25 26 26 26 25 24 25 26 25 25 23 22 22 21 20
18 17 15 15 18 21 26 31 34 37 39 41 42 41 42 43 42 41 39 38 39 42 45 45 45 44 43 42 42 42 42 43 43 42 40 39 38 37 37 36 35 34 34 34 34 33 33 33 32 32 32 31 32 32 32 30 30 30 29 29 29 30 30 30 30 29 28 28 28 27 26 26 26 27 26 25 25 26 26 24 23 23 24 23 22
21 20 18 18 19 21 26 30 33 36 38 39 40 40 40 40 40 39 39 39 39 41 44 45 44 43 42 41 41 42 42 43 43 43 42 41 39 39 38 36 35 35 35 35 35 34 34 34 33 33 33 32 32 33 33 31 30 30 30 30 30 30 31 31 31 30 30 29 29 29 28 27 27 27 26 26 26 25 25 24 22 22 23 23 23
22 22 22 20 19 22 26 29 33 34 35 36 36 36 35 37 40 41 41 41 42 42 43 44 43 42 41 41 41 41 42 42 43 43 42 41 40 39 38 36 35 35 35 35 35 34 34 34 33 33 33 34 34 35 35 33 31 31 31 31 31 32 32 32 33 32 31 31 30 30 29 28 27 26 26 26 25 24 23 23 21 19 19 21 20
24 24 26 24 21 22 25 28 31 31 32 35 36 36 34 35 39 41 42 42 43 43 43 43 42 41 40 40 40 40 41 41 41 41 41 41 40 39 38 37 36 36 36 35 34 34 33 33 32 32 33 33 34 35 36 35 34 33 32 32 32 33 33 33 34 33 33 32 32 31 30 29 27 26 25 25 24 22 22 23 23 21 19 18 18
25 25 26 25 22 22 23 26 27 29 32 33 34 35 34 34 37 41 42 43 43 44 44 42 41 40 40 39 39 39 40 40 41 41 41 41 40 39 38 37 36 36 35 35 34 33 33 32 32 33 33 34 34 35 36 35 34 34 33 33 33 33 33 34 34 34 34 33 33 32 30 28 27 25 26 25 23 21 22 24 25 25 23 20 18
23 24 24 22 20 19 21 23 26 29 32 33 33 34 35 37 39 42 43 44 44 44 43 41 40 40 39 38 37 37 38 39 40 41 40 40 39 38 37 36 35 34 34 35 34 33 33 33 33 33 33 33 33 33 34 34 34 33 33 32 32 33 33 34 34 34 34 33 33 33 31 29 27 25 26 25 21 21 23 25 26 27 27 24 19
20 21 20 17 16 17 19 22 26 29 32 33 35 36 36 38 41 41 42 44 44 43 41 40 39 38 38 37 36 36 36 37 38 39 39 39 38 37 36 35 35 34 34 34 34 34 34 34 33 34 33 33 32 32 33 33 33 32 32 31 32 32 33 34 34 33 33 33 32 32 32 30 27 25 25 24 21 21 24 25 26 28 27 24 20
18 18 15 12 12 15 19 23 27 30 32 33 35 36 36 39 40 40 41 41 41 40 39 38 38 38 38 37 36 36 35 36 36 37 37 37 37 36 36 35 35 34 34 33 33 33 34 33 33 33 32 32 32 31 33 33 32 32 32 31 32 33 33 33 33 33 32 32 32 31 31 30 28 25 24 23 22 23 25 26 27 28 27 23 19
16 15 10 7 10 15 19 21 26 30 32 33 35 36 36 38 40 40 39 39 38 38 38 38 38 38 37 36 35 34 34 34 35 34 34 35 35 34 35 35 34 33 32 33 32 31 30 30 30 30 30 30 31 32 32 33 33 33 32 31 32 33 33 32 32 31 29 28 27 25 24 24 24 22 21 22 24 24 25 27 29 31 29 25 22
14 11 6 3 8 14 18 20 24 29 32 33 35 36 37 38 39 39 37 36 36 35 36 36 37 36 36 35 34 33 32 32 33 32 32 32 32 32 33 33 32 31 31 31 31 30 29 27 27 27 27 26 28 30 31 33 33 32 32 31 32 32 31 31 30 26 22 21 20 17 16 18 19 18 19 22 24 25 26 28 30 31 29 27 24
13 10 6 2 5 11 15 19 22 26 29 31 33 36 37 37 37 36 35 34 34 33 34 35 36 36 35 34 33 32 30 30 31 31 31 31 31 31 33 32 30 30 28 25 24 25 25 24 23 23 22 21 21 24 28 32 33 31 30 30 30 29 29 29 27 21 17 17 16 15 15 17 17 18 20 23 24 25 26 27 28 28 27 25 24
14 11 7 3 2 7 11 15 19 23 25 27 30 34 36 36 35 34 34 33 33 33 34 35 35 35 34 33 31 29 28 28 29 29 29 29 29 29 30 30 28 26 23 20 18 19 19 20 21 21 20 19 19 20 23 28 31 30 29 27 26 25 25 26 24 18 15 16 17 16 17 18 18 18 20 23 24 25 26 26 25 25 25 25 26
15 13 9 5 1 5 8 9 13 18 21 23 27 31 34 35 34 33 32 33 33 33 34 34 34 33 32 32 30 28 27 27 27 27 27 27 27 27 28 28 27 23 19 18 19 18 18 18 19 19 19 19 19 18 19 22 25 27 26 25 23 22 22 23 22 18 17 20 22 21 21 21 19 19 21 22 23 24 24 23 23 23 23 24 25
20 18 14 9 3 4 6 8 10 12 14 17 20 25 30 32 31 30 31 32 32 33 33 32 32 32 31 30 29 28 27 26 26 26 25 25 26 26 26 27 25 22 19 19 19 19 19 18 17 17 18 18 19 19 18 19 21 23 23 23 21 21 20 21 21 21 21 22 24 24 23 22 21 20 21 22 22 23 22 21 21 22 21 21 22
23 21 17 14 9 7 6 8 8 8 9 11 13 16 21 27 29 28 28 31 32 31 31 30 30 30 30 30 29 28 26 25 25 25 24 24 25 25 25 27 27 24 21 20 19 19 20 19 18 17 17 18 20 21 20 20 21 22 22 22 20 20 21 22 23 24 23 22 23 23 23 22 22 22 22 22 22 21 20 19 20 20 19 19 19
21 21 20 18 15 12 11 9 8 8 8 9 10 11 14 20 26 26 25 28 31 30 29 29 29 30 30 29 28 27 26 25 25 26 25 24 25 26 26 26 28 27 25 22 21 21 22 21 20 19 19 20 21 22 21 20 19 20 20 20 19 20 22 23 24 25 24 24 25 24 24 24 24 24 24 23 21 20 19 18 19 18 17 17 18
19 21 22 21 19 16 14 12 11 10 9 8 9 9 10 14 22 24 23 26 28 29 28 28 28 28 28 27 28 27 26 24 23 23 25 25 25 26 26 24 24 26 26 25 23 23 22 21 22 22 21 21 21 22 21 20 19 19 18 17 17 19 21 22 23 24 23 24 26 25 25 25 25 24 23 22 20 20 20 19 18 17 17 17 15
19 19 22 23 21 18 16 15 14 11 9 9 9 8 8 11 16 18 19 22 25 26 27 26 27 28 28 26 27 27 25 24 21 21 24 28 29 28 27 25 24 24 25 26 26 26 23 22 22 21 21 22 22 22 21 20 20 19 18 17 17 18 19 20 21 22 22 23 25 25 24 25 25 24 23 22 22 22 21 20 19 18 17 15 13
22 20 20 22 22 20 18 16 15 13 12 12 11 11 9 10 12 12 13 18 22 24 25 24 25 27 26 25 26 26 25 25 22 20 23 27 29 29 28 26 26 26 25 25 26 27 26 26 24 22 22 22 22 21 20 20 20 19 17 18 19 19 19 19 21 22 21 20 21 22 24 24 24 24 24 24 23 23 21 20 19 18 17 16 14
Wind_Direction
191 190 190 190 191 190 190 190 192 194 197 202 207 210 210 210 212 211 211 212 213 214 214 214 214 214 212 212 215 216 216 217 217 218 219 222 225 222 220 218 214 212 212 212 208 205 205 205 217 216 145 98 53 59 35 18 16 16 22 34 44 61 78 74 53 67 77 82 83 69 49 49 48 80 120 115 64 100 89 87 99 90 43 37 26
189 189 190 191 191 191 191 191 193 196 200 205 210 213 214 213 215 216 214 215 216 216 217 217 218 218 218 217 217 218 221 220 220 223 222 227 232 226 226 227 217 214 215 213 214 213 213 216 225 235 223 210 222 19 10 16 15 10 20 36 33 28 74 90 50 55 75 92 100 86 67 74 58 59 97 68 42 53 68 72 75 71 50 42 38
189 188 189 191 191 191 191 193 196 199 204 209 213 216 216 216 217 218 218 218 218 218 220 220 221 222 222 223 220 216 223 225 222 225 226 229 236 232 231 233 224 217 216 213 213 212 213 218 223 231 236 232 243 291 340 5 358 0 13 32 26 17 52 80 66 64 81 97 98 85 73 74 65 70 80 59 50 43 61 90 61 53 39 31 49
189 189 189 190 190 191 192 194 196 198 203 211 215 217 218 218 218 219 221 221 221 221 222 222 223 225 225 226 225 216 221 228 226 229 230 230 236 236 232 234 229 221 218 214 211 210 211 212 218 224 228 230 236 255 283 321 339 352 350 355 27 27 43 72 80 76 85 98 90 64 63 85 76 70 66 54 37 22 42 25 4 16 328 339 28
189 189 190 190 191 192 193 194 196 198 203 210 216 218 219 220 219 220 221 222 223 223 223 224 226 228 228 228 228 222 223 231 232 231 232 231 233 236 236 234 231 226 220 216 213 210 210 211 216 219 221 226 229 235 245 259 287 314 315 340 17 30 54 85 96 85 85 93 83 45 59 76 51 35 41 50 25 1 1 316 327 331 309 317 327
192 191 190 191 192 192 193 195 197 199 204 211 217 219 220 221 221 221 222 223 224 224 225 227 228 230 230 230 229 227 228 232 234 231 232 233 231 233 237 236 233 230 225 221 218 214 211 212 215 216 220 222 224 228 231 237 246 257 289 332 0 17 52 83 107 113 102 68 62 27 31 38 17 11 21 37 37 25 358 312 317 307 290 302 303
195 194 192 191 191 192 194 196 198 200 204 210 215 219 221 222 222 222 222 223 224 225 226 228 230 232 232 231 231 232 232 233 235 232 230 234 232 229 234 237 235 232 229 225 222 221 217 215 216 217 217 219 222 225 224 227 240 248 270 313 346 17 49 73 112 144 89 55 86 41 15 348 350 5 8 18 28 27 17 353 332 315 295 295 298
193 193 193 193 193 194 196 199 201 201 202 207 213 218 221 223 223 222 222 223 224 225 226 228 231 230 229 232 234 234 233 234 236 234 233 237 237 233 233 237 236 232 229 227 226 227 225 221 221 219 216 218 220 221 221 218 224 234 256 294 331 16 43 60 101 164 109 102 175 189 259 310 339 1 343 351 1 5 18 45 45 7 340 313 296
194 193 194 194 195 196 197 200 202 200 200 205 211 216 220 223 224 223 223 223 224 225 226 229 229 224 226 232 233 233 233 234 236 236 236 237 238 237 235 237 238 234 230 227 226 228 230 227 225 223 218 217 219 218 220 218 217 222 231 256 299 350 15 42 46 64 109 163 217 253 239 286 319 309 298 315 340 337 0 30 23 6 359 347 326
197 196 196 196 197 198 198 198 199 199 200 203 207 212 219 222 223 222 222 222 223 224 225 228 226 221 226 229 230 232 232 232 234 235 235 235 236 237 236 236 238 237 233 230 227 227 230 229 226 226 220 217 218 215 218 220 219 219 219 229 249 286 316 19 12 353 32 193 244 281 279 281 283 268 270 276 295 308 315 333 342 349 354 355 338
198 198 198 198 198 197 197 196 197 198 198 199 201 206 216 221 222 222 221 221 222 222 224 228 226 222 224 224 227 232 231 231 232 233 235 234 234 235 236 236 236 236 234 232 230 228 230 229 225 225 221 218 217 214 215 217 220 225 224 224 228 237 249 256 287 312 336 333 304 288 292 273 264 265 266 277 294 305 306 317 336 350 345 340 324
196 197 197 196 196 195 195 195 196 196 195 197 199 202 212 219 222 221 220 220 221 221 223 225 222 220 221 221 226 229 229 231 231 232 234 234 234 235 235 235 235 234 232 231 231 230 230 229 225 223 222 221 217 214 216 214 216 225 226 226 229 229 228 228 242 237 278 318 301 270 270 254 251 258 260 270 288 298 305 312 324 335 329 326 316
195 196 195 195 195 194 194 194 194 195 196 198 199 200 208 217 221 221 219 219 219 219 222 221 216 217 219 218 223 225 226 230 231 231 233 233 234 234 233 234 235 234 232 229 229 229 230 229 226 225 222 221 221 217 218 218 220 226 227 229 228 229 231 221 225 230 239 273 254 238 244 250 252 257 263 267 275 288 298 302 306 315 316 315 310
196 195 196 196 195 193 193 193 193 195 198 199 200 201 206 215 220 220 219 218 217 218 220 219 215 216 216 215 220 223 224 228 229 230 231 231 233 232 231 233 235 236 235 232 229 227 229 228 226 226 223 221 223 221 221 221 223 228 231 233 233 234 236 226 224 228 231 247 248 238 233 240 251 254 260 265 268 277 288 293 297 301 304 306 304
196 197 198 197 196 193 193 194 194 196 199 199 200 203 207 214 220 219 218 218 217 217 219 218 216 214 214 214 217 221 223 225 226 228 229 229 231 231 230 231 234 237 237 235 232 228 227 227 225 226 226 226 225 223 224 224 224 227 231 234 235 237 240 233 227 226 228 237 250 254 246 236 246 251 254 264 268 268 270 275 285 295 301 306 304
197 198 200 199 197 194 193 195 195 197 200 200 200 204 208 214 219 219 217 216 216 216 218 218 215 211 212 212 214 219 221 223 224 225 227 228 229 229 229 229 231 235 237 236 234 231 229 228 227 226 227 229 228 225 225 226 228 227 230 237 237 237 242 241 233 229 229 233 243 257 257 242 241 244 245 251 256 259 264 270 275 283 290 298 305
198 200 201 199 197 195 196 196 195 198 202 203 204 209 212 216 219 219 216 216 216 215 217 218 214 213 214 213 214 217 218 220 223 224 225 226 228 228 228 228 228 231 235 235 234 233 231 230 229 228 227 228 228 227 227 228 232 230 230 240 241 236 240 243 238 232 232 233 240 252 260 257 252 255 258 258 265 272 279 284 283 278 279 287 297
202 203 201 198 197 197 198 197 198 201 204 205 208 212 215 218 220 218 215 215 216 215 216 217 216 218 220 218 217 218 219 221 222 224 225 226 227 227 227 227 227 228 231 233 234 232 231 231 230 229 228 227 227 228 230 230 233 234 232 239 246 239 235 240 241 237 236 236 239 249 259 265 266 272 274 270 278 289 291 291 291 287 287 288 291
204 204 201 199 199 199 199 199 200 201 202 205 209 212 215 218 220 219 216 215 215 215 215 217 217 218 220 221 219 218 220 221 221 222 225 225 226 227 227 226 227 227 228 230 231 231 231 230 229 228 229 229 228 228 232 232 233 236 235 237 248 247 239 237 241 244 244 243 243 249 256 261 266 271 268 262 274 287 290 289 291 293 294 293 294
204 203 202 201 201 201 202 202 199 198 199 200 204 210 213 215 218 219 218 217 215 215 215 216 216 216 218 220 219 219 220 221 220 220 222 225 226 227 228 227 227 228 228 228 228 229 231 230 228 229 229 230 230 230 233 236 235 237 238 236 241 249 246 238 238 243 248 249 250 251 253 255 260 267 268 266 271 280 283 283 287 292 293 293 295
203 203 203 203 203 203 203 202 198 196 197 196 199 204 207 210 215 217 217 216 215 214 215 215 215 215 216 218 220 221 221 220 221 222 223 225 226 226 228 228 227 228 228 227 227 227 229 230 230 230 231 231 232 231 232 237 238 238 240 238 237 242 244 239 235 237 244 250 252 254 256 256 257 261 266 268 271 278 283 284 286 288 290 291 292
204 204 205 204 204 203 200 198 196 194 195 196 197 199 202 207 212 214 215 215 214 214 214 215 215 215 216 217 219 222 222 221 221 222 223 224 225 225 226 227 227 227 226 226 226 226 227 229 230 232 232 233 234 233 233 236 238 239 241 242 241 242 244 245 245 246 250 254 256 257 258 258 258 260 262 264 266 269 272 276 281 286 288 290 292
209 209 208 206 203 200 196 194 194 195 196 196 195 196 200 204 206 209 213 214 213 212 213 214 214 215 216 216 218 220 221 221 220 220 222 223 224 224 224 224 225 226 226 225 225 226 227 228 230 232 233 233 235 235 234 234 237 239 240 242 244 245 248 251 254 257 258 258 258 259 259 259 260 261 262 263 265 265 265 268 274 281 286 290 294
213 214 210 206 199 194 193 193 194 195 195 195 196 197 199 199 200 205 210 211 209 208 212 215 214 214 216 216 216 218 219 219 218 219 221 221 222 223 223 222 222 224 226 224 223 225 227 229 230 231 232 233 234 235 235 236 238 238 239 241 243 246 248 251 254 256 256 255 257 259 259 260 261 262 265 266 267 269 271 273 277 281 286 290 292
215 215 209 202 195 192 193 192 193 194 194 195 196 196 197 197 199 202 203 204 205 205 209 215 215 213 214 215 215 216 217 218 217 218 219 219 220 223 224 223 220 222 224 224 223 224 227 229 230 231 232 233 234 235 236 237 238 238 239 240 243 245 248 250 252 253 252 252 255 256 258 259 260 262 267 270 272 275 278 283 286 289 292 291 286
215 212 205 199 196 193 192 192 194 195 195 195 196 196 197 197 198 199 198 199 201 202 206 213 215 214 214 214 214 215 216 216 215 216 217 218 218 220 224 224 221 220 222 224 224 224 226 229 231 231 232 233 235 236 237 237 237 238 239 240 242 244 247 248 249 251 252 253 255 256 257 258 259 262 266 271 276 280 284 287 290 292 294 292 287
213 207 203 199 197 195 194 197 198 197 195 197 197 197 197 196 197 197 195 196 198 199 204 212 216 214 213 214 213 213 214 215 215 214 216 218 218 218 222 225 222 221 222 225 226 226 227 229 231 232 233 234 236 237 238 237 236 236 238 239 240 242 244 246 247 249 252 254 255 257 257 257 258 262 266 272 277 281 284 286 288 290 291 290 288
202 200 199 198 198 196 198 202 201 197 196 198 198 198 197 196 195 194 194 195 198 201 206 212 215 214 214 214 213 212 213 214 214 214 215 217 218 218 221 225 224 223 223 225 227 230 230 231 232 233 233 235 238 239 239 237 235 235 237 239 240 240 242 245 249 251 251 253 255 258 261 262 262 263 267 272 276 279 281 283 284 285 286 286 283
200 197 198 200 200 201 205 208 205 198 197 198 198 197 197 196 195 194 194 195 197 201 206 211 215 216 215 214 213 213 213 214 215 214 215 217 219 220 222 225 225 224 223 225 226 229 232 234 233 233 234 235 237 239 239 237 235 235 236 238 240 240 242 246 250 252 252 254 255 256 260 264 266 267 269 272 274 276 277 279 280 281 280 278 273
222 206 205 207 208 209 213 214 209 202 198 197 197 197 197 197 196 195 194 194 198 204 209 213 217 218 217 215 213 213 213 214 215 215 215 216 219 221 222 223 224 224 223 224 225 227 230 233 235 234 234 235 236 238 238 237 236 235 236 238 239 241 244 247 249 251 253 255 256 257 259 262 265 268 270 271 272 273 274 274 273 274 274 269 263
293 245 223 218 215 213 214 215 214 211 203 198 199 199 198 197 196 195 194 195 200 208 213 216 218 218 218 217 215 213 214 215 216 217 216 216 218 221 222 223 223 224 225 225 226 227 228 230 234 235 234 235 236 237 238 237 236 236 236 238 240 242 245 247 249 250 252 254 256 258 260 262 265 266 268 269 270 271 272 272 270 268 266 263 258
311 300 268 242 227 216 214 219 220 215 207 202 200 199 198 198 200 198 195 194 199 208 214 217 217 218 219 218 216 214 214 215 217 217 217 216 218 220 222 223 223 224 225 226 227 229 229 229 232 235 236 236 237 238 238 238 236 236 236 238 240 243 245 247 249 250 252 253 255 257 259 262 265 267 268 268 269 270 271 270 269 265 261 258 254
310 305 292 270 250 229 223 228 224 215 210 208 205 203 204 204 203 200 195 193 197 205 213 216 217 218 219 218 217 215 215 216 217 218 217 217 218 219 221 223 224 225 227 229 230 231 232 232 233 236 238 237 238 240 239 237 237 236 236 236 239 242 245 248 249 251 252 253 254 255 256 259 262 265 268 269 269 271 271 270 266 262 260 257 253
306 302 296 283 267 244 230 230 230 223 216 210 205 205 205 203 201 199 194 194 198 205 213 217 217 218 219 218 217 217 217 218 219 219 219 218 218 220 222 223 225 228 230 232 233 234 235 235 236 238 239 239 239 241 240 238 236 236 236 236 238 240 243 246 249 251 252 253 254 255 256 257 260 262 265 267 268 271 272 271 268 262 259 257 252
303 301 296 288 271 250 233 226 226 222 211 202 199 201 199 198 202 203 199 199 204 208 213 218 219 219 219 218 218 218 219 220 221 221 221 221 221 222 223 225 226 229 232 233 235 237 238 239 239 240 241 241 241 241 241 239 236 235 235 236 237 239 241 244 247 249 251 253 254 256 257 258 259 261 263 265 268 270 270 269 268 265 261 258 254
301 299 295 287 270 251 237 226 220 213 203 198 196 196 194 194 201 205 203 204 209 211 214 219 220 219 218 217 217 218 219 221 222 223 224 224 224 224 225 226 227 230 233 235 236 238 240 241 242 242 242 243 242 242 242 241 239 238 238 237 238 240 241 243 245 247 250 252 254 256 257 258 259 260 261 262 264 266 264 262 262 263 262 260 258
300 297 292 284 268 249 235 223 213 204 199 197 194 190 188 190 197 204 206 208 211 213 217 221 220 219 218 217 217 218 219 220 222 224 224 224 225 226 226 226 227 229 233 236 237 238 239 240 241 241 242 242 243 243 244 243 242 241 241 241 241 242 242 243 244 246 248 251 253 254 256 257 258 258 259 260 259 256 253 255 257 259 259 259 258
300 298 293 281 260 241 228 215 205 198 195 193 188 184 185 191 200 206 207 209 213 216 219 221 220 219 218 217 217 218 219 220 222 223 224 224 225 226 226 226 227 228 231 235 236 237 238 238 239 241 242 243 243 244 245 245 244 243 243 243 243 244 244 244 244 246 247 249 251 253 254 255 255 255 256 257 253 246 244 248 252 254 255 258 259
302 301 297 280 252 232 218 206 197 193 190 186 183 182 186 195 203 206 207 211 215 217 219 219 219 219 218 218 218 218 219 220 222 222 223 224 225 225 226 226 227 228 230 232 235 237 238 239 240 242 244 244 244 245 246 246 244 243 242 242 242 243 244 244 244 245 247 248 249 252 253 253 252 251 252 251 245 238 238 242 246 249 253 258 261
308 304 295 275 243 220 207 200 194 189 184 183 182 183 189 199 204 206 208 212 216 217 218 219 219 218 219 219 219 218 218 220 222 223 224 225 226 227 228 229 230 230 232 233 234 237 240 242 243 244 246 246 245 245 247 246 244 242 240 239 240 241 242 243 244 245 246 248 249 251 253 253 251 247 245 244 239 233 233 237 241 245 250 255 259
319 314 300 270 232 214 204 197 192 187 183 182 182 184 192 201 206 208 211 214 216 216 217 219 219 218 219 219 220 220 220 221 224 225 226 227 228 229 231 233 233 233 234 235 235 235 237 240 243 244 245 246 246 245 246 246 244 242 239 238 238 239 240 242 243 244 245 246 247 249 250 252 250 242 235 234 232 229 228 231 237 242 247 253 257
335 331 327 275 227 217 207 196 189 187 186 185 188 192 198 204 208 211 212 212 213 215 217 218 217 216 217 219 220 221 221 223 225 226 227 228 229 230 232 233 233 234 235 237 237 237 236 237 239 241 242 243 245 246 247 246 245 243 240 238 238 238 239 241 241 242 241 241 242 243 241 244 243 232 221 222 224 225 226 229 235 241 246 253 258
352 346 356 354 229 216 204 195 190 188 187 188 192 199 203 207 210 211 210 209 211 214 216 216 216 215 216 217 219 220 220 221 223 225 226 227 227 228 230 231 231 232 233 234 235 236 236 234 235 238 238 236 238 242 244 244 243 242 240 238 237 237 238 238 238 237 235 235 238 236 234 238 236 222 214 216 219 222 226 229 234 239 244 250 254
9 2 21 40 235 206 196 197 194 189 188 189 194 201 206 208 210 209 206 207 211 214 215 215 215 215 215 216 217 218 218 219 221 223 224 225 226 227 230 231 232 231 228 227 227 228 228 229 230 232 233 233 234 236 240 243 242 239 237 236 235 235 234 234 233 231 230 233 235 232 232 235 232 219 214 216 218 221 226 229 231 234 238 243 248
28 22 40 61 145 176 172 180 183 184 187 188 194 204 209 208 207 207 206 206 209 212 215 215 215 213 213 214 215 216 217 218 220 221 222 222 224 226 228 229 230 226 220 220 222 222 223 225 227 227 228 232 234 233 235 241 242 237 233 233 233 232 232 231 230 227 221 222 225 226 228 230 227 220 217 219 220 222 226 227 229 231 232 235 243
45 37 42 55 82 142 149 154 157 167 180 186 193 204 210 208 206 207 207 206 208 212 214 214 214 213 212 212 213 214 216 217 218 220 221 222 223 225 226 227 225 220 214 215 217 218 220 223 224 226 227 229 232 232 232 237 240 236 230 230 233 233 230 227 227 227 224 221 221 223 224 226 226 224 223 224 225 226 227 229 229 228 229 232 236
49 46 50 59 70 88 117 139 142 146 164 176 185 196 204 208 208 207 206 208 211 214 215 214 214 213 212 211 211 212 213 214 216 218 218 221 223 223 225 227 224 216 210 212 214 214 218 221 223 224 226 225 227 230 228 229 236 237 230 226 229 231 227 223 222 223 225 225 224 223 224 226 227 228 228 229 231 232 232 231 230 230 232 229 222
50 53 57 60 66 76 89 107 120 132 149 162 172 181 192 204 208 206 206 210 213 214 214 215 214 213 213 212 211 211 209 210 212 214 213 215 218 219 220 224 226 220 213 211 213 214 215 217 220 222 225 226 227 229 228 227 230 233 231 230 231 230 226 222 221 220 221 223 224 222 223 225 227 230 233 233 234 235 234 234 234 231 225 216 208
53 56 62 62 60 64 72 81 95 117 137 148 162 174 183 200 207 207 208 212 215 215 214 215 214 213 213 212 212 211 209 206 208 210 210 211 212 214 215 218 223 226 220 213 214 218 219 220 222 224 226 227 228 230 231 229 226 228 233 237 235 230 225 222 222 219 216 219 223 221 222 227 230 232 236 236 235 234 233 231 227 218 209 204 202
57 58 64 64 58 57 63 68 75 94 118 130 145 160 172 193 206 210 212 214 215 215 214 212 211 211 211 211 211 211 210 208 205 207 214 216 214 214 216 214 215 223 226 220 215 216 219 221 223 225 227 228 229 231 231 230 231 235 240 238 232 229 224 219 218 217 214 219 225 225 225 229 232 233 235 236 234 234 231 223 212 203 199 199 198
55 57 59 62 58 56 59 61 64 77 98 117 136 147 155 173 185 194 207 214 215 213 211 209 210 212 212 212 210 208 210 210 204 205 219 226 223 221 222 218 214 218 226 229 224 220 219 221 221 223 226 228 231 235 235 234 238 243 241 233 230 230 224 215 214 214 213 216 223 225 227 230 231 231 234 235 233 229 223 211 199 192 194 198 200